FENGYUN 1C DEB

Satellite information

Favourite Embed

Satellite Type and Status

DEBRISIN ORBIT

Key statistics

Satellite FENGYUN 1C DEB at a glance.

Uptime

9615

Days in orbit

Revolutions

≈ 14.7

Per day

Orbit

SSO

Sun Synchronous Orbit

Inclination

99.2

Latest

Satellite identification and parameters

Extended collection of information and parameters for FENGYUN 1C DEB.

Object identification

Identified? True

Debris? True

Object name: FENGYUN 1C DEB

International designator: 1999-025ETV

Object number (NORAD): 38728

Object ID (CCSDS): 38728

Country: PEOPLES REPUBLIC OF CHINA (PRC)

Current information (Y/N): Y

RCS size: SMALL

Orbital parameters

Period: 98.064 minutes

Inclination: 99.2475 deg

SMA: 7044.235 km

Apoapsis: 720.652 km

Periapsis: 611.547 km

RAAN: 220.2074 deg

Eccentricy: 0.00774428

Argument of periapsis: 4.8826 deg

Mean anomaly: 11.4123 deg

Mean motion: 14.68425908 rev/day

Mean motion (dot): 0.00022766 rev/day2

B* drag term: 0.0037581431 1/REarth

Two-line elements (TLE)

Creation date: Sept. 3, 2025, 10:15 a.m.

Reference frame: TEME

Reference center: EARTH

Epoch: Sept. 3, 2025, 4:26 a.m. UTC

TLE line 0: 0 FENGYUN 1C DEB

TLE line 1: 1 38728U 99025ETV 25246.18482376 .00022766 00000-0 37581-2 0 9990

TLE line 2: 2 38728 99.2475 220.2074 0077443 4.8826 11.4123 14.68425908641343

Live tracking on map

Real-time ground track for satellite FENGYUN 1C DEB.

In-orbit conjunctions

A list of the most updated potential collisions computed for object FENGYUN 1C DEB.

Target Orbit TCA Probability of collision Miss distance Type
PARASOL SSO 2024-11-20 18:15:52 0.0001088193 653.0 (m) PAYLOAD
SL-16 DEB LEO 2024-07-03 15:44:32 0.0001279976 135.0 (m) DEBRIS
COSMOS 2251 DEB LEO 2024-06-07 08:56:34 0.000279679 74.0 (m) DEBRIS

Associated space launch

Chinese polar orbiting meteorological satellite

FENGYUN 1C DEB was lifted into orbit during the mission ‘Long March 4B | Feng Yun 1C’, on board a Long March 4B space rocket.

The launch took place on May 10, 1999, 1:33 a.m. from Launch Complex 7.

For more information about the launch, click the button.

Launch to space Long March 4B | Feng Yun 1C
Long March 4B | Feng Yun 1C

Agency: N/A

Status: Launch Successful

Launch date: May 10, 1999, 1:33 a.m. UTC

Rocket: Long March 4B

Launch pad: Launch Complex 7

Location: Taiyuan Satellite Launch Center, People's Republic of China

...

Latest news about this satellite

There are no fresh news available about this satellite. Check back as we update our databases every day.


Newsletter sign-up

Weekly statistics, charts and insights to help you stay on top of the space industry.